Wind_Speed
74 71 80 77 77 75 75 76 77 75 76 79 80 79 75 77 77 79 83 85 84 78 76 75 75 75 75 76 76 77 78 78 79 81 86 91 93 96
76 74 78 79 78 78 77 78 81 77 78 80 82 82 80 83 84 86 88 88 84 82 80 80 80 81 81 81 82 82 84 85 86 87 87 86 86 89
76 78 77 79 80 79 78 81 83 84 79 82 83 83 82 87 90 88 91 88 83 85 84 82 82 82 83 83 84 86 89 91 93 95 95 94 93 93
78 77 73 82 80 80 82 82 84 85 82 83 82 80 83 83 86 90 88 87 86 86 86 84 82 83 86 89 92 95 98 100 102 103 103 102 102 101
79 77 74 76 81 83 85 86 85 87 86 78 75 79 84 86 86 83 88 91 90 87 84 87 90 93 96 98 102 106 107 108 107 109 109 110 110 110
76 75 73 68 78 80 86 88 87 88 86 82 85 85 87 85 84 88 88 90 89 92 95 99 103 105 104 105 107 105 104 104 103 103 104 107 108 109
68 72 72 76 81 84 84 89 90 81 78 81 89 94 87 85 90 91 89 92 98 102 105 112 112 111 108 106 101 96 93 92 91 91 91 93 97 101
67 72 75 78 80 83 88 85 83 83 86 93 100 94 92 94 94 95 96 98 104 113 115 120 115 113 102 96 91 86 81 78 76 77 80 84 87 89
61 69 73 76 82 87 80 76 86 92 96 94 96 100 97 97 98 99 104 108 113 118 117 117 104 99 93 89 81 75 71 69 68 69 72 76 79 80
65 70 72 78 80 79 80 86 91 93 96 102 103 100 100 101 102 106 111 116 119 121 105 101 97 89 87 81 75 71 68 65 64 64 63 63 63 66
63 68 77 83 83 86 90 94 98 101 106 105 103 102 104 108 110 114 119 120 121 113 95 91 84 79 79 72 68 68 65 63 61 59 57 57 57 57
66 75 80 84 87 90 93 98 100 102 103 104 104 106 110 115 118 120 121 119 106 96 88 83 77 67 75 73 64 62 60 54 53 51 50 48 47 49
71 77 82 85 90 95 96 97 97 97 100 104 109 113 116 118 122 121 109 98 90 82 74 72 70 67 66 64 61 55 50 47 42 43 43 42 41 41
76 81 83 87 89 90 90 92 95 100 106 110 113 117 119 120 111 100 91 85 77 70 67 62 65 63 60 58 53 47 41 42 38 35 33 33 34 33
75 77 80 83 85 88 92 98 103 107 109 114 117 117 109 100 93 86 79 75 68 59 56 59 58 56 51 48 48 45 43 36 37 32 30 28 28 26
72 73 77 84 90 95 100 103 105 108 112 112 104 96 91 83 78 74 70 63 58 54 54 53 50 46 44 44 43 37 39 36 31 28 26 27 25 24
74 81 87 92 94 98 102 104 106 104 96 90 85 79 75 72 66 60 56 54 55 57 54 48 41 37 33 32 44 31 33 35 30 27 24 25 23 20
82 86 88 91 96 100 102 99 91 87 82 75 70 68 65 60 53 50 51 52 53 48 46 44 39 36 29 21 31 37 30 34 35 30 25 22 24 21
80 86 90 94 96 95 86 83 78 72 67 63 60 57 53 49 49 51 51 50 46 42 37 35 34 32 33 29 23 28 30 31 30 29 27 23 21 22
83 87 90 90 84 78 74 68 64 60 55 51 48 48 47 48 50 49 47 44 42 36 30 27 29 29 28 29 29 26 26 26 25 24 24 24 22 21
83 84 80 75 72 67 62 57 53 49 45 44 46 47 47 48 47 45 42 37 35 30 28 25 25 26 27 27 27 25 24 22 21 19 19 20 18 19
77 74 69 66 62 58 52 49 47 43 41 43 45 46 46 46 43 41 36 33 26 23 23 24 24 23 23 24 23 21 20 19 22 24 21 18 17 17
68 65 64 60 55 49 46 45 43 40 40 41 45 46 45 42 38 35 31 27 22 21 24 23 22 22 23 22 23 24 23 22 19 17 21 23 22 20
Wind_Direction
279 281 280 285 287 289 289 288 289 292 296 294 296 298 298 298 297 299 300 300 300 295 294 294 292 291 288 287 285 283 282 279 276 273 270 267 265 263
276 277 281 284 285 285 286 288 291 292 293 293 297 299 296 298 296 297 297 299 296 293 293 292 290 289 287 286 284 282 280 279 277 275 272 270 267 265
275 279 282 281 283 283 283 284 287 291 295 295 296 296 296 298 299 297 297 297 294 292 292 291 291 290 289 288 286 283 279 277 274 272 270 269 267 265
273 277 277 278 281 281 282 285 288 290 291 295 297 298 300 297 297 292 293 295 294 293 291 294 295 292 289 286 283 280 277 274 273 272 271 270 268 267
273 274 275 278 277 279 282 286 288 288 292 300 301 296 297 295 292 296 293 295 297 295 296 297 295 293 291 288 285 280 276 274 274 273 271 270 269 268
272 270 270 272 277 281 284 287 288 289 293 298 297 294 294 292 292 296 300 301 300 300 301 300 299 297 294 289 284 282 280 279 277 275 272 271 269 268
267 266 268 270 274 281 283 284 288 295 295 298 301 300 295 298 300 301 303 302 304 303 303 303 302 300 295 290 288 287 285 282 280 277 274 270 268 265
264 268 270 275 276 277 281 289 289 292 297 299 299 300 301 301 302 304 304 304 304 305 305 304 302 299 294 294 292 289 288 286 282 278 274 271 267 264
260 267 270 272 276 278 288 291 290 291 297 297 300 299 299 302 302 303 305 305 304 304 304 304 301 298 299 296 295 295 292 288 283 277 273 271 270 269
263 266 271 277 283 290 296 297 296 297 299 298 300 300 301 303 303 304 304 304 304 304 304 305 301 301 299 299 300 299 297 294 288 283 280 276 273 271
269 272 276 279 283 294 294 293 295 296 296 298 299 301 302 302 303 304 303 304 305 304 305 303 301 303 300 300 300 299 297 295 293 289 284 279 276 272
272 274 280 284 289 291 294 295 294 295 296 298 300 301 303 303 303 302 302 304 303 304 305 303 303 302 300 301 301 300 299 299 297 292 287 283 278 273
275 280 286 288 288 289 290 292 293 296 298 300 301 301 301 301 302 303 303 303 303 304 303 302 301 301 299 299 302 302 302 301 298 295 292 288 283 277
281 283 286 287 288 290 292 296 298 299 299 298 297 298 300 301 302 301 303 301 302 303 302 299 301 301 301 301 301 302 303 303 302 300 297 292 287 281
286 287 287 290 292 294 298 299 297 297 297 298 299 299 299 300 301 301 300 302 303 301 299 301 300 301 301 300 302 307 307 306 304 304 302 297 293 287
289 291 292 293 295 296 296 296 297 298 299 299 298 299 299 300 300 301 303 303 303 302 302 302 301 302 302 303 304 309 308 310 309 310 307 299 292 288
294 294 293 294 296 296 297 298 300 299 299 299 299 299 299 299 302 303 303 303 304 305 306 305 303 301 304 312 305 310 308 307 307 308 305 301 300 297
294 294 297 298 297 297 300 301 301 301 300 300 300 299 302 303 305 305 306 305 305 306 306 307 308 310 310 308 295 306 306 305 307 308 304 296 292 290
299 297 297 298 300 301 302 302 301 302 301 301 302 303 303 307 309 310 308 307 307 308 308 306 310 311 310 312 312 310 312 310 306 306 305 301 296 291
299 298 300 301 303 304 304 304 302 301 301 302 304 305 308 310 310 309 309 308 309 311 306 310 307 313 320 323 324 321 316 311 309 311 311 309 305 298
301 302 303 304 306 306 306 304 303 302 302 304 308 311 312 311 311 311 311 311 313 313 312 313 318 326 325 323 320 317 319 318 314 314 313 307 300 296
305 305 307 310 310 309 307 306 306 304 303 307 312 314 315 315 314 313 312 315 315 311 316 327 327 325 325 326 323 322 327 330 326 320 316 310 302 298
309 310 313 314 312 310 309 307 306 302 301 307 313 315 317 317 315 314 317 317 316 325 328 324 329 332 333 331 332 335 334 333 328 315 310 312 313 310
Height
10565 10565 10557 10552 10548 10544 10541 10536 10534 10532 10524 10512 10508 10501 10497 10491 10486 10483 10476 10468 10461 10454 10448 10443 10440 10437 10432 10427 10423 10417 10413 10409 10406 10405 10404 10403 10404 10404
10550 10547 10541 10537 10533 10528 10524 10519 10516 10514 10510 10501 10490 10483 10478 10472 10466 10462 10454 10447 10439 10432 10425 10420 10416 10411 10405 10401 10396 10391 10386 10382 10378 10374 10372 10371 10370 10368
10534 10530 10527 10521 10516 10512 10508 10503 10497 10493 10490 10481 10476 10468 10461 10453 10445 10438 10431 10424 10416 10407 10401 10396 10390 10384 10378 10371 10366 10361 10354 10348 10344 10340 10338 10337 10336 10336
10516 10514 10513 10504 10501 10494 10490 10486 10480 10475 10471 10466 10458 10449 10442 10432 10427 10419 10410 10398 10392 10382 10375 10368 10362 10355 10348 10340 10335 10326 10318 10312 10307 10303 10301 10303 10301 10301
10500 10498 10496 10490 10483 10478 10473 10468 10461 10455 10450 10447 10439 10431 10423 10412 10405 10395 10386 10374 10363 10353 10345 10340 10332 10324 10315 10308 10298 10285 10278 10273 10273 10268 10266 10264 10262 10262
10484 10482 10479 10474 10467 10461 10455 10449 10443 10436 10430 10427 10421 10412 10402 10390 10382 10372 10361 10347 10336 10322 10315 10309 10298 10288 10278 10267 10251 10246 10242 10238 10235 10231 10228 10225 10222 10219
10468 10465 10463 10457 10451 10445 10438 10430 10424 10418 10410 10405 10398 10389 10377 10366 10355 10344 10335 10324 10309 10294 10288 10269 10261 10249 10234 10218 10214 10213 10208 10201 10195 10190 10185 10180 10175 10173
10454 10449 10445 10440 10433 10426 10419 10413 10408 10398 10389 10383 10373 10362 10353 10340 10330 10318 10308 10297 10287 10261 10257 10240 10228 10210 10195 10187 10180 10175 10174 10169 10162 10154 10145 10138 10134 10134
10436 10432 10428 10422 10415 10409 10404 10397 10387 10375 10370 10361 10350 10340 10330 10315 10307 10295 10278 10268 10253 10236 10232 10217 10197 10175 10164 10152 10152 10149 10143 10135 10128 10122 10115 10109 10106 10104
10421 10417 10410 10404 10398 10392 10385 10375 10364 10352 10344 10333 10325 10314 10301 10289 10278 10267 10253 10241 10226 10206 10199 10192 10160 10154 10136 10129 10125 10118 10112 10107 10098 10092 10088 10086 10085 10084
10405 10401 10395 10388 10381 10374 10368 10358 10345 10331 10320 10308 10298 10287 10275 10262 10250 10240 10224 10212 10201 10176 10171 10159 10141 10132 10113 10110 10106 10096 10089 10083 10075 10068 10062 10059 10057 10058
10392 10387 10382 10376 10367 10357 10346 10335 10324 10310 10297 10283 10272 10261 10249 10234 10221 10210 10198 10185 10171 10159 10146 10132 10119 10117 10094 10085 10087 10077 10067 10062 10054 10047 10042 10039 10037 10035
10381 10375 10367 10357 10347 10335 10325 10314 10303 10290 10275 10262 10246 10233 10220 10208 10195 10181 10170 10159 10148 10137 10129 10116 10102 10095 10084 10072 10065 10058 10051 10044 10040 10032 10025 10021 10019 10017
10364 10355 10347 10337 10325 10313 10302 10290 10279 10266 10252 10238 10223 10209 10194 10181 10169 10155 10146 10134 10128 10121 10108 10099 10089 10079 10068 10055 10049 10044 10039 10031 10025 10020 10015 10009 10005 10003
10343 10334 10324 10314 10301 10288 10278 10267 10254 10240 10226 10210 10195 10183 10170 10157 10146 10132 10124 10115 10108 10103 10095 10085 10073 10063 10055 10045 10035 10031 10023 10023 10015 10010 10005 10000 9995 9993
10324 10315 10305 10292 10281 10270 10256 10243 10228 10214 10199 10184 10170 10157 10146 10135 10127 10116 10106 10097 10089 10084 10079 10069 10059 10051 10042 10034 10026 10021 10015 10007 10005 10000 9995 9990 9987 9985
10308 10296 10283 10273 10261 10246 10230 10216 10203 10188 10174 10160 10147 10136 10127 10118 10112 10103 10093 10084 10076 10066 10058 10053 10046 10040 10035 10027 10010 10011 10004 9998 9995 9991 9987 9982 9979 9979
10289 10275 10262 10248 10234 10219 10206 10190 10176 10163 10149 10138 10127 10117 10109 10102 10096 10090 10080 10072 10063 10056 10046 10037 10031 10025 10024 10022 10008 10000 9999 9990 9984 9981 9978 9975 9971 9971
10266 10251 10238 10224 10211 10196 10182 10168 10154 10141 10131 10121 10111 10103 10096 10091 10083 10075 10067 10058 10051 10045 10038 10029 10023 10019 10012 10007 10004 9995 9988 9983 9977 9973 9970 9967 9965 9963
10242 10228 10215 10201 10187 10174 10160 10148 10136 10125 10116 10107 10100 10093 10087 10080 10072 10064 10056 10046 10039 10034 10028 10024 10017 10012 10005 9998 9992 9988 9982 9976 9970 9965 9961 9958 9956 9954
10221 10206 10192 10179 10167 10154 10142 10130 10120 10111 10103 10097 10090 10083 10077 10069 10061 10052 10044 10038 10030 10024 10019 10016 10010 10003 9997 9992 9986 9981 9975 9970 9965 9960 9956 9952 9949 9947
10200 10184 10172 10161 10148 10136 10124 10115 10106 10098 10092 10086 10080 10074 10067 10058 10049 10041 10035 10029 10025 10019 10014 10008 10003 9998 9992 9986 9981 9975 9970 9966 9960 9954 9951 9948 9945 9943
10179 10166 10154 10143 10132 10121 10111 10101 10094 10088 10082 10078 10072 10064 10057 10049 10041 10034 10028 10022 10018 10012 10007 10004 9998 9992 9987 9981 9975 9970 9967 9963 9959 9954 9948 9943 9940 9936